Time,TemperatureF,DewpointF,PressureIn,WindDirection,WindDirectionDegrees,WindSpeedMPH,WindSpeedGustMPH,Humidity,HourlyPrecipIn,Conditions,Clouds,dailyrainin,SolarRadiationWatts/m^2,SoftwareType,DateUTC
2013-04-08 00:02:00,34.7,32.6,29.98,SE,141,3.0,3.0,92,0.00,,,0.00,0,Wunderground v.1.15,2013-04-08 05:02:00,
2013-04-08 00:12:00,34.4,32.6,29.98,SE,141,3.0,3.0,93,0.00,,,0.00,0,Wunderground v.1.15,2013-04-08 05:12:00,
2013-04-08 00:22:00,34.4,32.9,29.96,SE,141,3.0,5.0,94,0.00,,,0.00,0,Wunderground v.1.15,2013-04-08 05:22:00,
2013-04-08 00:32:00,34.6,33.3,29.95,SE,141,3.0,3.0,95,0.00,,,0.00,0,Wunderground v.1.15,2013-04-08 05:32:00,
2013-04-08 00:42:00,34.7,32.9,29.95,SE,141,3.0,3.0,93,0.00,,,0.00,0,Wunderground v.1.15,2013-04-08 05:42:00,
2013-04-08 00:52:00,34.9,32.5,29.95,SE,140,3.0,3.0,91,0.00,,,0.00,0,Wunderground v.1.15,2013-04-08 05:52:00,
2013-04-08 01:02:00,34.9,32.3,29.96,SE,141,3.0,4.0,90,0.00,,,0.00,0,Wunderground v.1.15,2013-04-08 06:02:00,
2013-04-08 01:12:00,34.9,32.3,29.96,SE,141,3.0,3.0,90,0.00,,,0.00,0,Wunderground v.1.15,2013-04-08 06:12:00,
2013-04-08 01:22:00,34.9,32.3,29.95,SE,141,3.0,3.0,90,0.00,,,0.00,0,Wunderground v.1.15,2013-04-08 06:22:00,
2013-04-08 01:32:00,34.7,32.6,29.94,SE,141,4.0,4.0,92,0.00,,,0.00,0,Wunderground v.1.15,2013-04-08 06:32:00,
2013-04-08 01:42:00,34.7,32.6,29.94,SE,141,4.0,4.0,92,0.00,,,0.00,0,Wunderground v.1.15,2013-04-08 06:42:00,
2013-04-08 01:52:00,34.7,32.9,29.94,SE,145,3.0,3.0,93,0.00,,,0.00,0,Wunderground v.1.15,2013-04-08 06:52:00,
2013-04-08 02:02:00,34.7,32.9,29.93,SE,145,3.0,3.0,93,0.00,,,0.00,0,Wunderground v.1.15,2013-04-08 07:02:00,
2013-04-08 02:12:00,34.9,33.3,29.93,SE,145,3.0,3.0,94,0.00,,,0.00,0,Wunderground v.1.15,2013-04-08 07:12:00,
2013-04-08 02:22:00,35.2,33.6,29.92,SE,145,3.0,4.0,94,0.00,,,0.00,0,Wunderground v.1.15,2013-04-08 07:22:00,
2013-04-08 02:32:00,35.5,33.7,29.92,SE,141,5.0,5.0,93,0.00,,,0.00,0,Wunderground v.1.15,2013-04-08 07:32:00,
2013-04-08 02:42:00,35.5,33.4,29.92,SE,138,4.0,9.0,92,0.00,,,0.00,0,Wunderground v.1.15,2013-04-08 07:42:00,
2013-04-08 02:52:00,35.6,33.5,29.91,ESE,123,5.0,5.0,92,0.00,,,0.00,0,Wunderground v.1.15,2013-04-08 07:52:00,
2013-04-08 03:02:00,35.9,33.5,29.91,SE,141,6.0,6.0,91,0.00,,,0.00,0,Wunderground v.1.15,2013-04-08 08:02:00,
2013-04-08 03:12:00,36.0,33.6,29.91,SE,137,7.0,7.0,91,0.00,,,0.00,0,Wunderground v.1.15,2013-04-08 08:12:00,
2013-04-08 03:22:00,36.0,33.6,29.91,SE,128,7.0,8.0,91,0.00,,,0.00,0,Wunderground v.1.15,2013-04-08 08:22:00,
2013-04-08 03:32:00,36.0,33.6,29.91,SE,137,7.0,7.0,91,0.00,,,0.00,0,Wunderground v.1.15,2013-04-08 08:32:00,
2013-04-08 03:42:00,36.0,33.6,29.91,SSE,147,6.0,6.0,91,0.00,,,0.00,0,Wunderground v.1.15,2013-04-08 08:42:00,
2013-04-08 03:52:00,36.0,33.6,29.90,South,172,5.0,7.0,91,0.00,,,0.00,0,Wunderground v.1.15,2013-04-08 08:52:00,
2013-04-08 04:02:00,36.0,33.6,29.90,SE,136,6.0,6.0,91,0.00,,,0.00,0,Wunderground v.1.15,2013-04-08 09:02:00,
2013-04-08 04:12:00,35.9,33.5,29.90,SSE,148,5.0,5.0,91,0.00,,,0.00,0,Wunderground v.1.15,2013-04-08 09:12:00,
2013-04-08 04:22:00,35.9,33.3,29.90,SE,137,6.0,6.0,90,0.00,,,0.00,0,Wunderground v.1.15,2013-04-08 09:22:00,
2013-04-08 04:32:00,35.9,33.3,29.90,SSE,148,4.0,4.0,90,0.00,,,0.00,0,Wunderground v.1.15,2013-04-08 09:32:00,
2013-04-08 04:42:00,35.9,33.3,29.90,SE,133,6.0,6.0,90,0.00,,,0.00,0,Wunderground v.1.15,2013-04-08 09:42:00,
2013-04-08 04:52:00,35.9,33.3,29.90,SE,127,6.0,6.0,90,0.00,,,0.00,0,Wunderground v.1.15,2013-04-08 09:52:00,
2013-04-08 05:02:00,35.9,33.5,29.90,SE,136,6.0,7.0,91,0.00,,,0.00,0,Wunderground v.1.15,2013-04-08 10:02:00,
2013-04-08 05:22:00,35.9,33.3,29.89,ESE,112,5.0,5.0,90,0.00,,,0.00,0,Wunderground v.1.15,2013-04-08 10:22:00,
2013-04-08 05:32:00,36.0,33.4,29.88,East,82,5.0,5.0,90,0.00,,,0.00,0,Wunderground v.1.15,2013-04-08 10:32:00,
2013-04-08 05:42:00,35.9,33.3,29.88,SE,128,4.0,7.0,90,0.00,,,0.00,0,Wunderground v.1.15,2013-04-08 10:42:00,
2013-04-08 05:52:00,36.0,33.4,29.88,ESE,123,5.0,6.0,90,0.00,,,0.00,0,Wunderground v.1.15,2013-04-08 10:52:00,
2013-04-08 06:02:00,36.0,33.1,29.88,ESE,114,7.0,7.0,89,0.00,,,0.00,0,Wunderground v.1.15,2013-04-08 11:02:00,
2013-04-08 06:12:00,36.0,33.4,29.88,ESE,120,7.0,8.0,90,0.00,,,0.00,0,Wunderground v.1.15,2013-04-08 11:12:00,
2013-04-08 06:32:00,36.0,33.4,29.88,ESE,113,8.0,10.0,90,0.00,,,0.00,0,Wunderground v.1.15,2013-04-08 11:32:00,
2013-04-08 06:42:00,35.9,33.0,29.88,ESE,116,8.0,8.0,89,0.00,,,0.00,0,Wunderground v.1.15,2013-04-08 11:42:00,
2013-04-08 06:52:00,36.0,33.1,29.88,East,89,7.0,8.0,89,0.00,,,0.00,7,Wunderground v.1.15,2013-04-08 11:52:00,
2013-04-08 07:02:00,36.0,33.1,29.87,ESE,110,7.0,7.0,89,0.00,,,0.00,12,Wunderground v.1.15,2013-04-08 12:02:00,
2013-04-08 07:12:00,36.0,33.1,29.87,East,95,7.0,11.0,89,0.00,,,0.00,21,Wunderground v.1.15,2013-04-08 12:12:00,
2013-04-08 07:22:00,36.2,33.0,29.86,ESE,103,9.0,9.0,88,0.00,,,0.00,21,Wunderground v.1.15,2013-04-08 12:22:00,
2013-04-08 07:32:00,36.2,33.0,29.86,SE,126,8.0,8.0,88,0.00,,,0.00,32,Wunderground v.1.15,2013-04-08 12:32:00,
2013-04-08 07:42:00,36.3,33.1,29.86,East,92,8.0,8.0,88,0.00,,,0.00,44,Wunderground v.1.15,2013-04-08 12:42:00,
2013-04-08 07:52:00,36.5,33.3,29.85,ESE,121,7.0,8.0,88,0.00,,,0.00,63,Wunderground v.1.15,2013-04-08 12:52:00,
2013-04-08 08:02:00,36.5,33.3,29.84,East,95,6.0,8.0,88,0.00,,,0.00,55,Wunderground v.1.15,2013-04-08 13:02:00,
2013-04-08 08:12:00,36.5,33.3,29.84,East,79,5.0,7.0,88,0.00,,,0.00,44,Wunderground v.1.15,2013-04-08 13:12:00,
2013-04-08 08:22:00,36.5,33.3,29.84,ENE,71,7.0,7.0,88,0.00,,,0.00,42,Wunderground v.1.15,2013-04-08 13:22:00,
2013-04-08 08:32:00,36.5,33.6,29.83,ENE,75,7.0,10.0,89,0.00,,,0.00,63,Wunderground v.1.15,2013-04-08 13:32:00,
2013-04-08 08:42:00,36.5,33.3,29.83,ENE,66,8.0,11.0,88,0.00,,,0.00,76,Wunderground v.1.15,2013-04-08 13:42:00,
2013-04-08 08:52:00,36.6,33.4,29.82,ENE,65,9.0,9.0,88,0.00,,,0.00,84,Wunderground v.1.15,2013-04-08 13:52:00,
2013-04-08 09:02:00,36.8,33.0,29.81,East,88,9.0,9.0,86,0.00,,,0.00,114,Wunderground v.1.15,2013-04-08 14:02:00,
2013-04-08 09:12:00,37.0,33.5,29.81,East,83,6.0,6.0,87,0.00,,,0.00,128,Wunderground v.1.15,2013-04-08 14:12:00,
2013-04-08 09:22:00,37.2,33.4,29.81,ENE,65,7.0,7.0,86,0.00,,,0.00,114,Wunderground v.1.15,2013-04-08 14:22:00,
2013-04-08 09:32:00,36.8,33.0,29.81,NE,48,8.0,8.0,86,0.00,,,0.00,106,Wunderground v.1.15,2013-04-08 14:32:00,
2013-04-08 09:42:00,36.6,32.8,29.81,NE,44,8.0,8.0,86,0.00,,,0.00,116,Wunderground v.1.15,2013-04-08 14:42:00,
2013-04-08 09:52:00,36.5,32.7,29.81,ENE,58,10.0,11.0,86,0.00,,,0.00,99,Wunderground v.1.15,2013-04-08 14:52:00,
2013-04-08 10:02:00,36.6,32.5,29.82,NNE,30,9.0,9.0,85,0.00,,,0.00,74,Wunderground v.1.15,2013-04-08 15:02:00,
2013-04-08 10:12:00,36.5,32.7,29.82,NE,48,8.0,8.0,86,0.00,,,0.00,84,Wunderground v.1.15,2013-04-08 15:12:00,
2013-04-08 10:22:00,36.3,32.5,29.83,ENE,65,9.0,9.0,86,0.00,,,0.00,99,Wunderground v.1.15,2013-04-08 15:22:00,
2013-04-08 10:32:00,36.5,33.0,29.83,NE,41,8.0,8.0,87,0.00,,,0.00,90,Wunderground v.1.15,2013-04-08 15:32:00,
2013-04-08 10:42:00,36.2,33.3,29.83,NE,45,7.0,7.0,89,0.00,,,0.00,93,Wunderground v.1.15,2013-04-08 15:42:00,
2013-04-08 10:52:00,35.9,33.3,29.82,NNE,21,7.0,7.0,90,0.00,,,0.00,95,Wunderground v.1.15,2013-04-08 15:52:00,
2013-04-08 11:02:00,35.8,33.2,29.82,NE,44,8.0,10.0,90,0.00,,,0.00,113,Wunderground v.1.15,2013-04-08 16:02:00,
2013-04-08 11:12:00,35.9,33.5,29.82,NE,44,9.0,9.0,91,0.00,,,0.00,107,Wunderground v.1.15,2013-04-08 16:12:00,
2013-04-08 11:22:00,35.8,33.7,29.81,NE,49,9.0,9.0,92,0.00,,,0.00,99,Wunderground v.1.15,2013-04-08 16:22:00,
2013-04-08 11:32:00,35.8,34.0,29.81,ENE,58,7.0,7.0,93,0.00,,,0.01,116,Wunderground v.1.15,2013-04-08 16:32:00,
2013-04-08 11:42:00,35.8,34.2,29.81,NE,37,8.0,8.0,94,0.00,,,0.01,121,Wunderground v.1.15,2013-04-08 16:42:00,
2013-04-08 11:52:00,35.8,34.2,29.80,NNE,31,10.0,10.0,94,0.00,,,0.01,114,Wunderground v.1.15,2013-04-08 16:52:00,
2013-04-08 12:02:00,35.6,34.0,29.80,NE,54,10.0,10.0,94,0.00,,,0.01,99,Wunderground v.1.15,2013-04-08 17:02:00,
2013-04-08 12:12:00,35.6,34.0,29.80,NE,35,11.0,11.0,94,0.00,,,0.01,102,Wunderground v.1.15,2013-04-08 17:12:00,
2013-04-08 12:22:00,35.8,34.5,29.80,NE,47,10.0,10.0,95,0.00,,,0.01,116,Wunderground v.1.15,2013-04-08 17:22:00,
2013-04-08 12:32:00,35.9,34.6,29.79,ENE,58,11.0,12.0,95,0.00,,,0.01,125,Wunderground v.1.15,2013-04-08 17:32:00,
2013-04-08 12:42:00,36.0,34.7,29.79,NE,45,10.0,10.0,95,0.00,,,0.01,151,Wunderground v.1.15,2013-04-08 17:42:00,
2013-04-08 12:52:00,36.0,34.7,29.79,NNE,27,11.0,14.0,95,0.00,,,0.01,109,Wunderground v.1.15,2013-04-08 17:52:00,
2013-04-08 13:02:00,36.2,35.2,29.78,NE,47,10.0,10.0,96,0.00,,,0.02,113,Wunderground v.1.15,2013-04-08 18:02:00,
2013-04-08 13:12:00,36.2,35.2,29.78,NE,44,10.0,10.0,96,0.00,,,0.02,174,Wunderground v.1.15,2013-04-08 18:12:00,
2013-04-08 13:22:00,36.5,35.5,29.78,NE,42,9.0,11.0,96,0.00,,,0.02,187,Wunderground v.1.15,2013-04-08 18:22:00,
2013-04-08 13:32:00,36.6,35.6,29.78,NE,52,10.0,10.0,96,0.00,,,0.02,183,Wunderground v.1.15,2013-04-08 18:32:00,
2013-04-08 13:42:00,36.9,36.1,29.78,NE,52,9.0,13.0,97,0.00,,,0.02,164,Wunderground v.1.15,2013-04-08 18:42:00,
2013-04-08 13:52:00,36.9,36.1,29.79,NE,45,10.0,11.0,97,0.00,,,0.02,183,Wunderground v.1.15,2013-04-08 18:52:00,
2013-04-08 14:12:00,37.3,36.3,29.79,NNE,32,11.0,11.0,96,0.00,,,0.02,185,Wunderground v.1.15,2013-04-08 19:12:00,
2013-04-08 14:22:00,37.5,36.5,29.79,NE,52,10.0,10.0,96,0.00,,,0.02,160,Wunderground v.1.15,2013-04-08 19:22:00,
2013-04-08 14:32:00,37.5,36.5,29.79,NE,51,10.0,11.0,96,0.00,,,0.02,153,Wunderground v.1.15,2013-04-08 19:32:00,
2013-04-08 14:42:00,37.3,36.3,29.79,NE,42,10.0,10.0,96,0.00,,,0.02,99,Wunderground v.1.15,2013-04-08 19:42:00,
2013-04-08 14:52:00,37.3,36.3,29.81,ENE,61,9.0,9.0,96,0.00,,,0.02,178,Wunderground v.1.15,2013-04-08 19:52:00,
2013-04-08 15:02:00,37.3,36.3,29.81,NE,45,9.0,13.0,96,0.00,,,0.03,169,Wunderground v.1.15,2013-04-08 20:02:00,
2013-04-08 15:12:00,37.2,36.2,29.81,NNE,21,10.0,10.0,96,0.00,,,0.03,128,Wunderground v.1.15,2013-04-08 20:12:00,
2013-04-08 15:22:00,37.3,36.3,29.81,NNE,28,8.0,9.0,96,0.00,,,0.03,160,Wunderground v.1.15,2013-04-08 20:22:00,
2013-04-08 15:32:00,37.5,36.5,29.81,NE,35,9.0,9.0,96,0.00,,,0.03,194,Wunderground v.1.15,2013-04-08 20:32:00,
2013-04-08 15:42:00,37.8,36.8,29.81,NE,37,8.0,8.0,96,0.00,,,0.03,230,Wunderground v.1.15,2013-04-08 20:42:00,
2013-04-08 15:52:00,37.9,36.9,29.81,NE,45,9.0,9.0,96,0.00,,,0.03,243,Wunderground v.1.15,2013-04-08 20:52:00,
2013-04-08 16:02:00,38.0,37.0,29.81,NNE,24,9.0,9.0,96,0.00,,,0.03,222,Wunderground v.1.15,2013-04-08 21:02:00,
2013-04-08 16:12:00,38.3,37.3,29.81,NE,34,8.0,8.0,96,0.00,,,0.03,157,Wunderground v.1.15,2013-04-08 21:12:00,
2013-04-08 16:22:00,38.2,37.2,29.82,NNE,20,8.0,8.0,96,0.00,,,0.03,158,Wunderground v.1.15,2013-04-08 21:22:00,
2013-04-08 16:32:00,38.3,37.3,29.82,ENE,62,8.0,13.0,96,0.00,,,0.03,211,Wunderground v.1.15,2013-04-08 21:32:00,
2013-04-08 16:42:00,38.3,37.3,29.82,NE,52,7.0,8.0,96,0.00,,,0.03,107,Wunderground v.1.15,2013-04-08 21:42:00,
2013-04-08 16:52:00,38.2,36.9,29.83,ENE,68,10.0,10.0,95,0.00,,,0.03,99,Wunderground v.1.15,2013-04-08 21:52:00,
2013-04-08 17:02:00,38.0,36.7,29.83,NE,47,7.0,10.0,95,0.00,,,0.03,60,Wunderground v.1.15,2013-04-08 22:02:00,
2013-04-08 17:12:00,37.9,36.6,29.83,NE,34,6.0,6.0,95,0.00,,,0.03,55,Wunderground v.1.15,2013-04-08 22:12:00,
2013-04-08 17:22:00,37.8,36.2,29.84,NE,44,6.0,6.0,94,0.00,,,0.03,35,Wunderground v.1.15,2013-04-08 22:22:00,
2013-04-08 17:32:00,37.8,36.5,29.85,NNE,32,5.0,5.0,95,0.00,,,0.03,28,Wunderground v.1.15,2013-04-08 22:32:00,
2013-04-08 17:42:00,37.3,36.0,29.85,NE,38,6.0,6.0,95,0.00,,,0.03,28,Wunderground v.1.15,2013-04-08 22:42:00,
2013-04-08 18:02:00,37.0,35.7,29.88,NNE,23,6.0,10.0,95,0.00,,,0.03,14,Wunderground v.1.15,2013-04-08 23:02:00,
2013-04-08 18:12:00,37.0,36.0,29.88,NNE,25,5.0,7.0,96,0.00,,,0.03,7,Wunderground v.1.15,2013-04-08 23:12:00,
2013-04-08 18:22:00,37.0,36.0,29.89,NNE,25,4.0,6.0,96,0.00,,,0.03,7,Wunderground v.1.15,2013-04-08 23:22:00,
2013-04-08 18:32:00,37.2,36.2,29.90,NNE,16,2.0,2.0,96,0.00,,,0.03,0,Wunderground v.1.15,2013-04-08 23:32:00,
2013-04-08 18:42:00,36.3,35.0,29.90,NNE,16,2.0,2.0,95,0.00,,,0.03,0,Wunderground v.1.15,2013-04-08 23:42:00,
2013-04-08 18:52:00,36.0,35.0,29.90,NNE,16,0.0,0.0,96,0.00,,,0.03,5,Wunderground v.1.15,2013-04-08 23:52:00,
2013-04-08 19:02:00,35.8,34.8,29.91,NNE,16,1.0,1.0,96,0.00,,,0.03,0,Wunderground v.1.15,2013-04-09 00:02:00,
2013-04-08 19:12:00,35.5,34.5,29.91,NNE,16,0.0,0.0,96,0.00,,,0.03,0,Wunderground v.1.15,2013-04-09 00:12:00,
2013-04-08 19:22:00,35.9,35.1,29.91,NNE,16,1.0,1.0,97,0.00,,,0.03,0,Wunderground v.1.15,2013-04-09 00:22:00,
2013-04-08 19:32:00,36.2,35.7,29.93,NNE,16,2.0,4.0,98,0.00,,,0.03,0,Wunderground v.1.15,2013-04-09 00:32:00,
2013-04-08 19:42:00,36.2,35.7,29.93,NNE,16,1.0,1.0,98,0.00,,,0.03,0,Wunderground v.1.15,2013-04-09 00:42:00,
2013-04-08 19:52:00,35.9,35.4,29.94,NNE,16,1.0,1.0,98,0.00,,,0.03,0,Wunderground v.1.15,2013-04-09 00:52:00,
2013-04-08 20:02:00,35.5,35.0,29.95,NNE,16,1.0,1.0,98,0.00,,,0.03,0,Wunderground v.1.15,2013-04-09 01:02:00,
2013-04-08 20:12:00,35.0,34.5,29.95,NNE,16,2.0,3.0,98,0.00,,,0.03,0,Wunderground v.1.15,2013-04-09 01:12:00,
2013-04-08 20:22:00,34.9,34.6,29.97,NNE,16,1.0,2.0,99,0.00,,,0.03,0,Wunderground v.1.15,2013-04-09 01:22:00,
2013-04-08 20:32:00,34.7,34.4,29.97,NNE,16,2.0,3.0,99,0.00,,,0.03,0,Wunderground v.1.15,2013-04-09 01:32:00,
2013-04-08 20:42:00,34.7,34.4,29.97,NNE,16,1.0,1.0,99,0.00,,,0.03,0,Wunderground v.1.15,2013-04-09 01:42:00,
2013-04-08 20:52:00,34.9,34.9,29.97,NNE,16,1.0,3.0,100,0.00,,,0.03,0,Wunderground v.1.15,2013-04-09 01:52:00,
2013-04-08 21:02:00,35.0,35.0,29.97,NNE,16,2.0,5.0,100,0.00,,,0.03,0,Wunderground v.1.15,2013-04-09 02:02:00,
2013-04-08 21:22:00,35.2,35.2,29.98,NNE,16,2.0,2.0,100,0.00,,,0.03,0,Wunderground v.1.15,2013-04-09 02:22:00,
2013-04-08 21:32:00,35.2,35.2,29.99,NNE,16,3.0,3.0,100,0.00,,,0.03,0,Wunderground v.1.15,2013-04-09 02:32:00,
2013-04-08 21:42:00,35.0,35.0,29.99,NNE,16,2.0,2.0,100,0.00,,,0.03,0,Wunderground v.1.15,2013-04-09 02:42:00,
2013-04-08 21:52:00,35.2,35.2,30.00,NNE,16,3.0,3.0,100,0.00,,,0.03,0,Wunderground v.1.15,2013-04-09 02:52:00,
2013-04-08 22:02:00,35.2,35.2,30.01,NNE,16,2.0,2.0,100,0.00,,,0.03,0,Wunderground v.1.15,2013-04-09 03:02:00,
2013-04-08 22:12:00,34.7,34.7,30.01,NNE,16,2.0,2.0,100,0.00,,,0.03,0,Wunderground v.1.15,2013-04-09 03:12:00,
2013-04-08 22:22:00,34.7,34.7,30.03,NNE,16,2.0,2.0,100,0.00,,,0.03,0,Wunderground v.1.15,2013-04-09 03:22:00,
2013-04-08 22:32:00,34.6,34.6,30.03,NNE,16,2.0,4.0,100,0.00,,,0.03,0,Wunderground v.1.15,2013-04-09 03:32:00,
2013-04-08 22:42:00,34.6,34.6,30.03,NNE,16,3.0,3.0,100,0.00,,,0.03,0,Wunderground v.1.15,2013-04-09 03:42:00,
2013-04-08 22:52:00,34.7,34.7,30.01,NNE,16,2.0,2.0,100,0.00,,,0.03,0,Wunderground v.1.15,2013-04-09 03:52:00,
2013-04-08 23:02:00,35.0,35.0,30.02,North,0,4.0,4.0,100,0.00,,,0.03,0,Wunderground v.1.15,2013-04-09 04:02:00,
2013-04-08 23:12:00,35.2,35.2,30.02,North,0,4.0,4.0,100,0.00,,,0.03,0,Wunderground v.1.15,2013-04-09 04:12:00,
2013-04-08 23:22:00,35.2,35.2,30.02,NNE,20,5.0,6.0,100,0.00,,,0.03,0,Wunderground v.1.15,2013-04-09 04:22:00,
2013-04-08 23:32:00,35.2,35.2,30.02,NNE,28,5.0,7.0,100,0.00,,,0.03,0,Wunderground v.1.15,2013-04-09 04:32:00,
2013-04-08 23:42:00,35.0,35.0,30.02,NE,35,6.0,7.0,100,0.00,,,0.03,0,Wunderground v.1.15,2013-04-09 04:42:00,
2013-04-08 23:52:00,35.0,35.0,30.02,NE,34,6.0,6.0,100,0.00,,,0.03,0,Wunderground v.1.15,2013-04-09 04:52:00,